weather.gov     
National Weather Service

Terminal Aerodrome Forecast
NWS Homepage
This page is being discontinued on March 12, 2014.
The same data is available at this site. Please update your bookmarks.
Thank you, and we apologize for the inconvenience.
Please send an email to SR-SRH.Webmaster@noaa.gov with any concerns.


Current Version
Previous Version:    01  02  03  04  05  06  07  08  09  10  11  12  13  14  15  16  17  18  19  20  21  22  23  24  25  26  27  28  29  30  
   31  32  33  34  35  36  37  38  39  40  41  42  43  44  45  46  47  
[Printable]
160
FTUS42 KFFC 012300
TAFFTY
TAF
KFTY 012320Z 0200/0224 VRB05KT P6SM VCTS SCT050CB BKN150
     FM020100 00000KT P6SM FEW050 SCT150 BKN250
     FM021400 29004KT P6SM SCT035 SCT150
     FM021800 27005KT P6SM SCT050 SCT150 PROB30 0219/0223 VRB15G30KT
      5SM TSRA BKN045CB=


U.S. Dept. of Commerce
NOAA National Weather Service
1325 East West Highway
Silver Spring, MD 20910
E-mail: w-nws.webmaster@noaa.gov
Page last modified: May 16, 2007
NATIONAL WEATHER SERVICE: for Safety, for Work, for Fun - FOR LIFE